This demonstration page uses our WeatherBlox Daily Observations layout. Learn more.

Left ArrowRight Arrow

41.86663, -103.66717

Hourly Observations for March 10, 2017

Temp ( °F °C ) Dew Point ( °F °C ) Humidity (%) Winds ( mph kmh ) Pressure ( in mb ) Visibility ( mi km ) Precip ( " mm )
12:49 am 00:49 Cloudy 27 -3 21 -6 80 80 ESE 9 15 30.53 1034 10 16 0.00 0.00
12:53 am 00:53 Cloudy 27 -2.8 21 -6.1 78 78 ESE 10 17 30.40 1030 10 16 0.00 0.00
1:53 am 01:53 Mostly Cloudy 26 -3.3 21 -6.1 81 81 SE 12 19 30.40 1029 10 16 0.00 0.00
2:16 am 02:16 Cloudy 26 -3.3 20 -6.7 78 78 SE 14 22 30.53 1034 10 16 0.00 0.00
2:48 am 02:48 Cloudy 25 -4 19 -7 80 80 SE 14 22 30.50 1033 10 16 0.00 0.00
2:53 am 02:53 Cloudy 25 -3.9 20 -6.7 81 81 SE 13 20 30.37 1029 10 16 0.00 0.00
3:53 am 03:53 Cloudy 25 -3.9 20 -6.7 81 81 SE 16 26 30.36 1028 10 16 0.00 0.00
4:53 am 04:53 Cloudy 26 -3.3 20 -6.7 78 78 SE 13 20 30.35 1028 10 16 0.00 0.00
5:18 am 05:18 Mostly Cloudy 27 -3 19 -7 74 74 SE 14 22 30.45 1031 10 16 0.00 0.00
5:29 am 05:29 Partly Cloudy 26 -3.3 20 -6.7 78 78 SE 14 22 30.45 1031 10 16 0.00 0.00
5:53 am 05:53 Mostly Cloudy 27 -2.8 20 -6.7 75 75 SE 14 22 30.34 1027 10 16 0.00 0.00
6:53 am 06:53 Partly Cloudy 27 -2.8 20 -6.7 75 75 SE 17 28 30.31 1027 10 16 0.00 0.00
7:53 am 07:53 Mostly Cloudy 30 -1.1 21 -6.1 69 69 SE 15 24 30.32 1027 10 16 0.00 0.00
8:53 am 08:53 Mostly Cloudy 35 1.7 22 -5.6 59 59 SSE 18 30 30.25 1024 10 16 0.00 0.00
9:53 am 09:53 Partly Cloudy 42 5.6 23 -5 47 47 SSE 16 26 30.20 1023 10 16 0.00 0.00
10:53 am 10:53 Mostly Cloudy 46 7.8 24 -4.4 42 42 SE 17 28 30.16 1021 10 16 0.00 0.00
11:53 am 11:53 Sunny 50 10 24 -4.4 36 36 SE 17 28 30.11 1020 10 16 0.00 0.00
12:53 pm 12:53 Sunny 53 11.7 25 -3.9 34 34 SSE 13 20 30.06 1018 10 16 0.00 0.00
1:53 pm 13:53 Sunny 56 13.3 25 -3.9 30 30 SE 14 22 30.02 1017 10 16 0.00 0.00
2:53 pm 14:53 Sunny 58 14.4 25 -3.9 28 28 SE 12 19 30.00 1016 10 16 0.00 0.00
3:53 pm 15:53 Sunny 57 13.9 26 -3.3 30 30 ESE 13 20 29.98 1015 10 16 0.00 0.00
4:53 pm 16:53 Sunny 54 12.2 26 -3.3 34 34 ENE 12 19 29.99 1016 10 16 0.00 0.00
5:53 pm 17:53 Cloudy 51 10.6 27 -2.8 39 39 ENE 9 15 30.01 1016 10 16 0.00 0.00
6:53 pm 18:53 Mostly Clear 49 9.4 27 -2.8 43 43 NE 13 20 30.04 1017 10 16 0.00 0.00
7:53 pm 19:53 Clear 46 7.8 27 -2.8 47 47 NE 9 15 30.07 1018 10 16 0.00 0.00
8:53 pm 20:53 Cloudy 43 6.1 27 -2.8 53 53 NE 16 26 30.12 1020 10 16 0.00 0.00
9:53 pm 21:53 Mostly Clear 40 4.4 25 -3.9 55 55 E 13 20 30.13 1020 10 16 0.00 0.00
10:53 pm 22:53 Cloudy 38 3.3 23 -5 55 55 undefined N/A 30.15 1021 10 16 0.00 0.00
11:53 pm 23:53 Cloudy with Light Rain 35 1.7 27 -2.8 72 72 SE 14 22 30.15 1021 10 16 0.02 0.51

Powered by AerisWeather